TimeCST,TemperatureF,Dew PointF,Humidity,Sea Level PressureIn,VisibilityMPH,Wind Direction,Wind SpeedMPH,Gust SpeedMPH,PrecipitationIn,Events,Conditions,WindDirDegrees,DateUTC
12:00 AM,-41,,,30.05,15,SSE,4.6,,,Snow,Snow,160,2013-01-14 06:00:00
12:00 AM,-41.8,-9999,N/A,30.05,15.0,SSE,4.6,-,N/A,,Partly Cloudy,160,2013-01-14 06:00:00
1:00 AM,-40.0,-9999,N/A,30.03,15.0,South,3.5,-,N/A,,Partly Cloudy,170,2013-01-14 07:00:00
2:00 AM,-41.8,-9999,N/A,30.02,15.0,SSE,4.6,-,N/A,,Partly Cloudy,160,2013-01-14 08:00:00
3:00 AM,-41.8,-9999,N/A,30.01,15.0,SSE,5.8,-,N/A,,Partly Cloudy,150,2013-01-14 09:00:00
4:00 AM,-41.8,-9999,N/A,30.00,8.0,SSE,6.9,-,N/A,,Partly Cloudy,150,2013-01-14 10:00:00
5:00 AM,-41.8,-9999,N/A,29.99,8.0,SSE,8.1,-,N/A,,Partly Cloudy,160,2013-01-14 11:00:00
6:00 AM,-42,,,29.98,7,SSE,6.9,,,Snow,Snow,150,2013-01-14 12:00:00
6:00 AM,-41.8,-9999,N/A,29.98,8.0,SSE,6.9,-,N/A,,Partly Cloudy,150,2013-01-14 12:00:00
7:00 AM,-41.8,-9999,N/A,29.97,6.0,South,8.1,-,N/A,,Ice Crystals,170,2013-01-14 13:00:00
8:00 AM,-41.8,-9999,N/A,29.97,5.0,South,8.1,-,N/A,,Ice Crystals,170,2013-01-14 14:00:00
9:00 AM,-41.8,-9999,N/A,29.97,5.0,South,8.1,-,N/A,,Ice Crystals,180,2013-01-14 15:00:00
10:00 AM,-45.4,-9999,N/A,29.96,5.0,South,6.9,-,N/A,,Ice Crystals,180,2013-01-14 16:00:00
11:00 AM,-43.6,-9999,N/A,29.95,5.0,South,9.2,-,N/A,Fog,Ice Crystals,170,2013-01-14 17:00:00
12:00 PM,-44,,,29.94,7,SSE,9.2,,,Snow,Snow,160,2013-01-14 18:00:00
12:00 PM,-43.6,-9999,N/A,29.94,8.0,SSE,9.2,-,N/A,,Scattered Clouds,160,2013-01-14 18:00:00
1:00 PM,-45.4,-9999,N/A,29.94,6.0,SSE,6.9,-,N/A,Fog,Ice Crystals,150,2013-01-14 19:00:00
2:00 PM,-45.4,-9999,N/A,29.94,10.0,SSE,6.9,-,N/A,Fog,Partly Cloudy,160,2013-01-14 20:00:00
3:00 PM,-47.2,-9999,N/A,29.94,10.0,SSE,6.9,-,N/A,Fog,Partly Cloudy,150,2013-01-14 21:00:00
5:00 PM,-49.0,-9999,N/A,29.94,10.0,SSE,4.6,-,N/A,,Partly Cloudy,160,2013-01-14 23:00:00
6:00 PM,-48,,,29.93,12,South,4.6,,,,Partly Cloudy,170,2013-01-15 00:00:00
6:00 PM,-49.0,-9999,N/A,29.93,12.0,South,4.6,-,N/A,,Partly Cloudy,170,2013-01-15 00:00:00
7:00 PM,-47.2,-9999,N/A,29.93,12.0,SSE,2.3,-,N/A,,Clear,160,2013-01-15 01:00:00
8:00 PM,-49.0,-9999,N/A,29.92,12.0,SE,2.3,-,N/A,,Clear,130,2013-01-15 02:00:00
8:52 PM,-9999,-9999,N/A,-9999,2.0,SE,2.3,-,N/A,,Clear,130,2013-01-15 02:52:00
9:00 PM,-49.0,-9999,N/A,29.92,2.0,East,2.3,-,N/A,,Clear,100,2013-01-15 03:00:00
9:15 PM,-9999,-9999,N/A,-9999,6.0,Calm,Calm,-,N/A,,Clear,0,2013-01-15 03:15:00
10:00 PM,-49.0,-9999,N/A,29.90,6.0,Calm,Calm,-,N/A,,Clear,0,2013-01-15 04:00:00
11:00 PM,-49.0,-9999,N/A,29.89,6.0,Calm,Calm,-,N/A,,Clear,0,2013-01-15 05:00:00